FW8685 Weather Reports


Display with metric or nautical units.
time (UTC)temp
F
wind
direction
speed
MPH
gust
MPH
rain 1hr
in
rain 24hr
in
rain mn
in
humidity
%
barometer
mb
20260902163051 95 153 12.0 21.0 0.00 0.00 0.00 45 1013.5
20260902162524 95 110 9.0 18.0 0.00 0.00 0.00 46 1013.5
20260902162024 95 157 10.0 19.0 0.00 0.00 0.00 45 1013.5
20260902161553 95 130 11.0 19.0 0.00 0.00 0.00 46 1013.5
20260902161026 94 150 10.0 22.0 0.00 0.00 0.00 47 1013.5
20260902160525 94 146 12.0 24.0 0.00 0.00 0.00 46 1013.5
20260902160044 94 103 9.0 24.0 0.00 0.00 0.00 47 1013.6
20260902155528 94 143 15.0 24.0 0.00 0.00 0.00 47 1013.6
20260902155026 94 138 9.0 20.0 0.00 0.00 0.00 48 1013.5
20260902154544 93 127 9.0 20.0 0.00 0.00 0.00 48 1013.7
20260902154025 93 161 12.0 20.0 0.00 0.00 0.00 48 1013.6
20260902153525 93 159 12.0 20.0 0.00 0.00 0.00 49 1013.6
20260902153050 92 137 11.0 22.0 0.00 0.00 0.00 49 1013.6
20260902152526 91 130 10.0 22.0 0.00 0.00 0.00 51 1013.6
20260902152023 91 133 12.0 22.0 0.00 0.00 0.00 51 1013.6
20260902151545 91 154 9.0 18.0 0.00 0.00 0.00 52 1013.6
20260902151027 90 131 9.0 16.0 0.00 0.00 0.00 53 1013.6
20260902150524 90 123 11.0 20.0 0.00 0.00 0.00 53 1013.6
20260902150045 90 138 13.0 20.0 0.00 0.00 0.00 53 1013.6
20260902145523 89 103 10.0 20.0 0.00 0.00 0.00 54 1013.6
20260902145026 89 153 11.0 20.0 0.00 0.00 0.00 54 1013.6
20260902144543 88 148 10.0 20.0 0.00 0.00 0.00 55 1013.5
20260902144024 88 140 10.0 18.0 0.00 0.00 0.00 56 1013.6
20260902143523 87 119 7.0 16.0 0.00 0.00 0.00 57 1013.6
20260902143045 87 116 9.0 16.0 0.00 0.00 0.00 57 1013.6
20260902142520 86 123 7.0 15.0 0.00 0.00 0.00 59 1013.6
20260902142025 85 119 8.0 14.0 0.00 0.00 0.00 60 1013.6
20260902141544 85 119 6.0 12.0 0.00 0.00 0.00 61 1013.6
20260902141024 84 111 7.0 12.0 0.00 0.00 0.00 62 1013.5
20260902140524 83 124 7.0 12.0 0.00 0.00 0.00 63 1013.6
20260902140042 83 132 6.0 12.0 0.00 0.00 0.00 64 1013.6
20260902135524 82 112 6.0 10.0 0.00 0.00 0.00 65 1013.7
20260902135025 81 113 6.0 11.0 0.00 0.00 0.00 66 1013.6
20260902134544 81 107 6.0 11.0 0.00 0.00 0.00 67 1013.6
20260902134022 80 109 6.0 11.0 0.00 0.00 0.00 68 1013.6
20260902133524 79 103 6.0 11.0 0.00 0.00 0.00 69 1013.5
20260902133045 78 98 7.0 10.0 0.00 0.00 0.00 70 1013.5
20260902132524 78 129 6.0 10.0 0.00 0.00 0.00 71 1013.4
20260902132023 77 97 7.0 10.0 0.00 0.00 0.00 72 1013.4
20260902131544 76 107 6.0 10.0 0.00 0.00 0.00 74 1013.5
20260902131025 75 115 7.0 9.0 0.00 0.00 0.00 75 1013.4
20260902130531 74 128 5.0 9.0 0.00 0.00 0.00 76 1013.5
20260902130056 74 112 5.0 8.0 0.00 0.00 0.00 77 1013.3
20260902125523 73 105 4.0 7.0 0.00 0.00 0.00 78 1013.2
20260902125027 72 94 3.0 8.0 0.00 0.00 0.00 79 1013.2
20260902124545 72 117 4.0 8.0 0.00 0.00 0.00 79 1013.1
20260902124023 72 115 4.0 7.0 0.00 0.00 0.00 79 1013.0
20260902123524 71 110 3.0 6.0 0.00 0.00 0.00 79 1013.0
20260902123054 71 112 3.0 4.0 0.00 0.00 0.00 78 1013.0
20260902122524 71 118 3.0 4.0 0.00 0.00 0.00 78 1012.9
20260902122022 71 115 3.0 6.0 0.00 0.00 0.00 78 1012.8
20260902121541 71 117 2.0 6.0 0.00 0.00 0.00 78 1012.8
20260902121025 71 119 3.0 6.0 0.00 0.00 0.00 77 1012.8
20260902120525 71 121 3.0 6.0 0.00 0.00 0.00 77 1012.8
20260902120044 71 111 3.0 7.0 0.00 0.00 0.00 77 1012.8
20260902115526 71 117 3.0 7.0 0.00 0.00 0.00 77 1012.8
20260902115025 71 103 4.0 8.0 0.00 0.00 0.00 77 1012.7
20260902114543 71 116 4.0 8.0 0.00 0.00 0.00 77 1012.6
20260902114022 72 111 3.0 7.0 0.00 0.00 0.00 76 1012.6
20260902113523 72 101 4.0 7.0 0.00 0.00 0.00 76 1012.6
20260902113047 72 107 4.0 7.0 0.00 0.00 0.00 76 1012.6
20260902112528 72 111 3.0 6.0 0.00 0.00 0.00 75 1012.7
20260902112024 72 103 3.0 4.0 0.00 0.00 0.00 75 1012.5
20260902111547 72 109 3.0 4.0 0.00 0.00 0.00 75 1012.6
20260902111024 72 119 3.0 6.0 0.00 0.00 0.00 75 1012.6
20260902110528 72 119 2.0 8.0 0.00 0.00 0.00 75 1012.7
20260902110048 72 120 3.0 8.0 0.00 0.00 0.00 75 1012.5
20260902105524 72 107 6.0 8.0 0.00 0.00 0.00 75 1012.4
20260902105025 72 103 5.0 8.0 0.00 0.00 0.00 75 1012.5
20260902104552 72 105 5.0 8.0 0.00 0.00 0.00 74 1012.4
20260902104025 72 105 4.0 7.0 0.00 0.00 0.00 73 1012.5
20260902103528 73 104 3.0 6.0 0.00 0.00 0.00 73 1012.4
20260902103043 73 104 3.0 6.0 0.00 0.00 0.00 73 1012.4
20260902102525 73 108 3.0 6.0 0.00 0.00 0.00 73 1012.4
20260902102026 73 108 3.0 7.0 0.00 0.00 0.00 73 1012.3
20260902101549 73 116 4.0 8.0 0.00 0.00 0.00 73 1012.3
20260902101025 73 107 4.0 8.0 0.00 0.00 0.00 73 1012.3
20260902100524 73 101 4.0 7.0 0.00 0.00 0.00 73 1012.3
20260902095523 73 113 3.0 6.0 0.00 0.00 0.00 72 1012.2
20260902095024 73 112 4.0 6.0 0.00 0.00 0.00 72 1012.2
20260902094543 73 117 3.0 6.0 0.00 0.00 0.00 72 1012.1
20260902094024 73 115 3.0 6.0 0.00 0.00 0.00 72 1012.1
20260902093524 73 109 3.0 6.0 0.00 0.00 0.00 72 1012.2
20260902093050 73 119 3.0 6.0 0.00 0.00 0.00 72 1012.1
20260902092524 73 117 3.0 6.0 0.00 0.00 0.00 71 1012.0
20260902092028 73 113 3.0 6.0 0.00 0.00 0.00 71 1012.1
20260902091545 74 110 3.0 6.0 0.00 0.00 0.00 71 1012.1
20260902091026 74 120 3.0 6.0 0.00 0.00 0.00 71 1012.0
20260902090524 74 113 3.0 6.0 0.00 0.00 0.00 71 1012.1
20260902090043 74 111 3.0 6.0 0.00 0.00 0.00 70 1012.1
20260902085524 74 111 3.0 6.0 0.00 0.00 0.00 70 1012.0
20260902085025 74 120 3.0 4.0 0.00 0.00 0.00 69 1012.0
20260902084551 74 115 3.0 6.0 0.00 0.00 0.00 69 1012.0
20260902084024 75 111 3.0 6.0 0.00 0.00 0.00 69 1011.9
20260902083524 75 119 3.0 5.0 0.00 0.00 0.00 68 1011.9
20260902083047 75 119 3.0 6.0 0.00 0.00 0.00 68 1011.9
20260902082524 75 109 3.0 6.0 0.00 0.00 0.00 67 1011.9
20260902082024 75 107 3.0 4.0 0.00 0.00 0.00 67 1011.9
20260902081549 75 108 3.0 4.0 0.00 0.00 0.00 67 1011.9
20260902081024 76 113 3.0 6.0 0.00 0.00 0.00 67 1011.9
20260902080524 76 114 3.0 6.0 0.00 0.00 0.00 66 1011.9
20260902080042 76 124 3.0 6.0 0.00 0.00 0.00 66 1011.9
20260902075524 76 114 3.0 7.0 0.00 0.00 0.00 66 1011.8
20260902075024 76 118 4.0 7.0 0.00 0.00 0.00 66 1011.8
20260902074546 76 111 4.0 8.0 0.00 0.00 0.00 65 1011.8
20260902074026 76 109 4.0 8.0 0.00 0.00 0.00 65 1011.7
20260902073525 77 108 5.0 8.0 0.00 0.00 0.00 65 1011.8
20260902073051 77 105 5.0 8.0 0.00 0.00 0.00 64 1011.8
20260902072524 77 108 5.0 8.0 0.00 0.00 0.00 64 1011.8
20260902072028 77 105 6.0 8.0 0.00 0.00 0.00 64 1011.7
20260902071543 77 109 5.0 7.0 0.00 0.00 0.00 63 1011.8
20260902071025 78 107 4.0 8.0 0.00 0.00 0.00 63 1011.8
20260902070524 78 112 4.0 8.0 0.00 0.00 0.00 63 1011.8
20260902070051 78 109 5.0 8.0 0.00 0.00 0.00 62 1011.9
20260902065524 78 107 4.0 8.0 0.00 0.00 0.00 62 1011.9
20260902065025 78 104 5.0 8.0 0.00 0.00 0.00 62 1011.9
20260902064552 78 121 5.0 9.0 0.00 0.00 0.00 62 1011.8
20260902064024 78 100 5.0 9.0 0.00 0.00 0.00 62 1011.8
20260902063524 78 113 6.0 9.0 0.00 0.00 0.00 62 1011.9
20260902063050 78 113 5.0 9.0 0.00 0.00 0.00 61 1011.8
20260902062524 79 109 6.0 9.0 0.00 0.00 0.00 61 1011.8
20260902062027 79 360 6.0 8.0 0.00 0.00 0.00 61 1011.7
20260902061604 79 119 5.0 9.0 0.00 0.00 0.00 61 1011.8
20260902061026 79 98 6.0 9.0 0.00 0.00 0.00 61 1011.8
20260902060526 79 109 6.0 10.0 0.00 0.00 0.00 61 1011.7
20260902060045 79 111 7.0 10.0 0.00 0.00 0.00 61 1011.7
20260902055525 79 106 7.0 11.0 0.00 0.00 0.00 61 1011.7
20260902055025 79 115 7.0 11.0 0.00 0.00 0.00 61 1011.7
20260902054550 79 115 7.0 10.0 0.00 0.00 0.00 61 1011.8
20260902054025 79 112 7.0 10.0 0.00 0.00 0.00 60 1011.7
20260902053524 79 127 6.0 10.0 0.00 0.00 0.00 60 1011.9
20260902053048 79 113 6.0 8.0 0.00 0.00 0.00 60 1011.7
20260902052531 79 111 4.0 9.0 0.00 0.00 0.00 59 1011.8
20260902052024 79 115 5.0 9.0 0.00 0.00 0.00 59 1011.9
20260902051544 79 110 6.0 9.0 0.00 0.00 0.00 59 1011.9
20260902051024 80 89 6.0 9.0 0.00 0.00 0.00 59 1011.9
20260902050526 80 105 5.0 8.0 0.00 0.00 0.00 58 1011.9
20260902050050 80 98 5.0 8.0 0.00 0.00 0.00 58 1011.9
20260902045523 80 117 5.0 9.0 0.00 0.00 0.00 58 1011.9
20260902045024 80 97 6.0 9.0 0.00 0.00 0.00 57 1011.9
20260902044543 80 98 6.0 9.0 0.00 0.00 0.00 57 1011.8
20260902044025 80 97 6.0 9.0 0.00 0.00 0.00 57 1011.8
20260902043529 80 91 6.0 9.0 0.00 0.00 0.00 57 1011.8
20260902043040 81 107 5.0 9.0 0.00 0.00 0.00 56 1011.8
20260902042525 81 106 6.0 9.0 0.00 0.00 0.00 56 1011.9
20260902042024 81 101 5.0 9.0 0.00 0.00 0.00 55 1011.9
20260902041545 81 104 5.0 8.0 0.00 0.00 0.00 55 1011.8
20260902041027 81 99 5.0 9.0 0.00 0.00 0.00 54 1011.8
20260902040529 81 96 6.0 9.0 0.00 0.00 0.00 54 1011.7
20260902040045 81 101 6.0 9.0 0.00 0.00 0.00 54 1011.7
20260902035525 82 101 6.0 10.0 0.00 0.00 0.00 53 1011.7
20260902035023 82 95 6.0 10.0 0.00 0.00 0.00 53 1011.8
20260902034543 82 107 6.0 10.0 0.00 0.00 0.00 52 1011.8
20260902034027 82 101 6.0 10.0 0.00 0.00 0.00 52 1011.7
20260902033524 82 95 7.0 9.0 0.00 0.00 0.00 52 1011.8
20260902033046 82 101 7.0 9.0 0.00 0.00 0.00 51 1011.8
20260902032525 82 94 6.0 9.0 0.00 0.00 0.00 51 1011.8
20260902032028 82 98 6.0 8.0 0.00 0.00 0.00 50 1011.8
20260902031547 82 102 5.0 8.0 0.00 0.00 0.00 49 1011.8
20260902031024 83 113 5.0 7.0 0.00 0.00 0.00 49 1011.7
20260902030523 83 100 4.0 8.0 0.00 0.00 0.00 49 1011.8
20260902030048 83 94 4.0 9.0 0.00 0.00 0.00 48 1011.7
20260902025524 83 92 6.0 9.0 0.00 0.00 0.00 48 1011.6
20260902025029 83 103 6.0 9.0 0.00 0.00 0.00 48 1011.5
20260902024548 83 94 5.0 8.0 0.00 0.00 0.00 48 1011.5
20260902024025 84 94 4.0 8.0 0.00 0.00 0.00 47 1011.4
20260902023523 84 94 5.0 8.0 0.00 0.00 0.00 47 1011.4
20260902023051 84 90 4.0 8.0 0.00 0.00 0.00 46 1011.3
20260902022524 85 105 5.0 8.0 0.00 0.00 0.00 46 1011.2
20260902022024 85 101 5.0 8.0 0.00 0.00 0.00 45 1011.2
20260902021544 85 100 5.0 8.0 0.00 0.00 0.00 45 1011.1
20260902021024 85 96 4.0 8.0 0.00 0.00 0.00 45 1011.0
20260902020525 86 109 5.0 8.0 0.00 0.00 0.00 44 1011.0
20260902020046 86 100 5.0 8.0 0.00 0.00 0.00 43 1010.9
20260902015527 86 101 5.0 9.0 0.00 0.00 0.00 43 1010.8
20260902015024 87 104 5.0 9.0 0.00 0.00 0.00 42 1010.8
20260902014548 87 99 6.0 10.0 0.00 0.00 0.00 42 1010.8
20260902014025 87 99 6.0 10.0 0.00 0.00 0.00 42 1010.6
20260902013523 88 88 5.0 8.0 0.00 0.00 0.00 41 1010.6
20260902013044 88 96 5.0 8.0 0.00 0.00 0.00 41 1010.6
20260902012527 88 99 4.0 9.0 0.00 0.00 0.00 41 1010.6
20260902012026 89 103 6.0 9.0 0.00 0.00 0.00 40 1010.7
20260902011549 90 100 5.0 9.0 0.00 0.00 0.00 39 1010.6
20260902011024 90 100 5.0 8.0 0.00 0.00 0.00 39 1010.7
20260902010528 90 92 6.0 10.0 0.00 0.00 0.00 38 1010.8
20260902010057 91 96 6.0 10.0 0.00 0.00 0.00 38 1010.6
20260902005525 91 113 6.0 10.0 0.00 0.00 0.00 37 1010.8
20260902005024 92 105 6.0 10.0 0.00 0.00 0.00 37 1010.8
20260902004546 92 98 6.0 11.0 0.00 0.00 0.00 36 1010.8
20260902004024 93 104 7.0 12.0 0.00 0.00 0.00 36 1010.6
20260902003525 94 107 8.0 12.0 0.00 0.00 0.00 35 1010.7
20260902003054 94 107 7.0 12.0 0.00 0.00 0.00 34 1010.8
20260902002525 95 104 8.0 12.0 0.00 0.00 0.00 34 1010.8
20260902002029 95 102 7.0 12.0 0.00 0.00 0.00 33 1010.8
20260902001547 95 114 9.0 16.0 0.00 0.00 0.00 33 1010.8
20260902001024 96 132 9.0 17.0 0.00 0.00 0.00 33 1010.8
20260902000525 96 118 11.0 19.0 0.00 0.00 0.00 32 1010.8
20260902000048 97 106 10.0 19.0 0.00 0.00 0.00 32 1010.9
20260901235525 97 103 10.0 19.0 0.00 0.00 0.00 32 1010.9
20260901235025 97 107 10.0 19.0 0.00 0.00 0.00 31 1010.8
20260901234545 97 124 12.0 19.0 0.00 0.00 0.00 31 1010.9
20260901234026 98 119 9.0 14.0 0.00 0.00 0.00 31 1010.9
20260901233526 98 108 9.0 18.0 0.00 0.00 0.00 31 1011.0
20260901233048 98 107 11.0 18.0 0.00 0.00 0.00 30 1010.9
20260901232525 98 121 7.0 16.0 0.00 0.00 0.00 30 1011.0
20260901232026 99 116 8.0 17.0 0.00 0.00 0.00 30 1010.9
20260901231545 99 138 11.0 17.0 0.00 0.00 0.00 30 1011.0
20260901231024 99 123 9.0 18.0 0.00 0.00 0.00 29 1011.0
20260901230525 99 105 11.0 18.0 0.00 0.00 0.00 29 1011.1
20260901230045 100 101 10.0 16.0 0.00 0.00 0.00 29 1011.0
20260901225524 100 94 10.0 17.0 0.00 0.00 0.00 29 1011.0
20260901225027 100 99 11.0 17.0 0.00 0.00 0.00 29 1011.0
20260901224551 100 112 12.0 20.0 0.00 0.00 0.00 29 1010.9
20260901224025 100 121 9.0 20.0 0.00 0.00 0.00 29 1011.0
20260901223525 100 126 12.0 20.0 0.00 0.00 0.00 28 1011.0
20260901223046 100 101 7.0 16.0 0.00 0.00 0.00 29 1011.0
20260901222525 100 106 9.0 17.0 0.00 0.00 0.00 29 1011.0
20260901222025 100 139 9.0 18.0 0.00 0.00 0.00 28 1011.0
20260901221555 100 130 8.0 20.0 0.00 0.00 0.00 27 1011.0
20260901221024 101 142 12.0 20.0 0.00 0.00 0.00 27 1011.2
20260901220524 101 121 11.0 21.0 0.00 0.00 0.00 27 1011.1
20260901220043 101 115 9.0 22.0 0.00 0.00 0.00 28 1011.1
20260901215525 101 111 14.0 22.0 0.00 0.00 0.00 28 1011.1
20260901215026 102 123 8.0 17.0 0.00 0.00 0.00 27 1011.1
20260901214557 102 115 10.0 15.0 0.00 0.00 0.00 27 1011.2
20260901214024 103 121 8.0 21.0 0.00 0.00 0.00 27 1011.2
20260901213524 102 113 11.0 21.0 0.00 0.00 0.00 27 1011.2
20260901213047 102 134 11.0 22.0 0.00 0.00 0.00 27 1011.3
20260901212524 102 141 9.0 22.0 0.00 0.00 0.00 27 1011.2
20260901212028 103 132 8.0 22.0 0.00 0.00 0.00 26 1011.3
20260901211543 102 128 11.0 23.0 0.00 0.00 0.00 26 1011.4
20260901211024 102 99 12.0 23.0 0.00 0.00 0.00 27 1011.5
20260901210525 102 142 13.0 23.0 0.00 0.00 0.00 26 1011.5
20260901205525 101 132 7.0 16.0 0.00 0.00 0.00 27 1011.6
20260901205026 101 117 9.0 24.0 0.00 0.00 0.00 28 1011.8
20260901204544 102 154 12.0 24.0 0.00 0.00 0.00 26 1011.8
20260901204030 102 132 8.0 21.0 0.00 0.00 0.00 27 1011.8
20260901203524 102 142 13.0 21.0 0.00 0.00 0.00 27 1012.0
20260901203045 102 133 10.0 20.0 0.00 0.00 0.00 26 1012.0
20260901202524 102 138 11.0 19.0 0.00 0.00 0.00 27 1011.9
20260901202026 102 114 9.0 20.0 0.00 0.00 0.00 27 1012.1
20260901201546 102 109 12.0 20.0 0.00 0.00 0.00 27 1012.2
20260901201024 102 122 12.0 21.0 0.00 0.00 0.00 27 1012.3
20260901200524 102 128 12.0 24.0 0.00 0.00 0.00 26 1012.2
20260901200044 102 155 11.0 24.0 0.00 0.00 0.00 28 1012.3
20260901195527 102 157 11.0 22.0 0.00 0.00 0.00 27 1012.3
20260901195025 103 150 11.0 24.0 0.00 0.00 0.00 26 1012.4
20260901194552 103 137 14.0 24.0 0.00 0.00 0.00 27 1012.4
20260901194023 103 123 11.0 20.0 0.00 0.00 0.00 28 1012.4
20260901193524 102 166 8.0 23.0 0.00 0.00 0.00 27 1012.6
20260901193046 103 162 13.0 23.0 0.00 0.00 0.00 27 1012.8
20260901192524 102 165 9.0 23.0 0.00 0.00 0.00 27 1012.7
20260901192025 100 105 5.0 27.0 0.00 0.00 0.00 29 1012.7
20260901191550 102 161 12.0 27.0 0.00 0.00 0.00 28 1012.8
20260901191025 103 126 15.0 27.0 0.00 0.00 0.00 27 1012.9
20260901190527 103 173 11.0 23.0 0.00 0.00 0.00 27 1012.9
20260901190051 101 132 8.0 23.0 0.00 0.00 0.00 28 1012.9
20260901185525 103 147 9.0 20.0 0.00 0.00 0.00 28 1012.9
20260901185025 102 140 13.0 22.0 0.00 0.00 0.00 28 1012.9
20260901184550 102 134 11.0 24.0 0.00 0.00 0.00 29 1013.0
20260901184024 103 153 13.0 24.0 0.00 0.00 0.00 27 1013.0
20260901183525 101 126 11.0 21.0 0.00 0.00 0.00 29 1013.0
20260901183102 100 138 11.0 20.0 0.00 0.00 0.00 30 1013.2
20260901182524 99 161 10.0 20.0 0.00 0.00 0.00 30 1013.3
20260901182026 100 138 14.0 20.0 0.00 0.00 0.00 30 1013.3
20260901181543 99 125 11.0 19.0 0.00 0.00 0.00 32 1013.4
20260901181023 98 129 10.0 18.0 0.00 0.00 0.00 32 1013.5
20260901180528 98 142 9.0 19.0 0.00 0.00 0.00 31 1013.5
20260901180043 99 150 9.0 19.0 0.00 0.00 0.00 30 1013.6
20260901175528 98 142 9.0 21.0 0.00 0.00 0.00 31 1013.5
20260901175025 98 148 12.0 21.0 0.00 0.00 0.00 31 1013.6
20260901174542 99 134 11.0 20.0 0.00 0.00 0.00 32 1013.6
20260901174024 99 132 8.0 18.0 0.00 0.00 0.00 33 1013.7
20260901173529 99 148 12.0 18.0 0.00 0.00 0.00 32 1013.8
20260901173045 99 142 9.0 23.0 0.00 0.00 0.00 33 1013.8
20260901172524 99 119 12.0 23.0 0.00 0.00 0.00 33 1013.8
20260901172024 99 132 12.0 17.0 0.00 0.00 0.00 34 1013.9
20260901171542 99 156 9.0 25.0 0.00 0.00 0.00 34 1013.9
20260901171024 98 97 10.0 25.0 0.00 0.00 0.00 34 1013.9
20260901170524 98 149 13.0 25.0 0.00 0.00 0.00 35 1013.9
20260901170049 98 153 10.0 24.0 0.00 0.00 0.00 36 1014.0
20260901165525 97 146 10.0 22.0 0.00 0.00 0.00 37 1014.0
20260901165025 97 135 15.0 23.0 0.00 0.00 0.00 36 1014.1
20260901164547 97 155 13.0 27.0 0.00 0.00 0.00 37 1014.1
20260901164026 97 148 12.0 27.0 0.00 0.00 0.00 36 1014.2
20260901163524 97 112 12.0 21.0 0.00 0.00 0.00 36 1014.2